• In Uzbekistan
  • List of Countries
  • For 7 days
  • Water Temperature
  • Satellite Maps
  • Weather Map
  • Weather Widgets
  • user-avatar
    Login

    Hourly Weather Bryuhovcy

    Today, 24 March, Sunday

    Time Temperature Precipitation Wind Pressure Humidity
    00:00 0°C° 0.2 mm 4 mps 747 mmHg 75%
    01:00 0°C° 0.2 mm 4 mps 746 mmHg 73%
    02:00 +1°C° 0 mm 3 mps 745 mmHg 70%
    03:00 +1°C° 0.8 mm 3 mps 744 mmHg 74%
    04:00 +1°C° 0.8 mm 3 mps 744 mmHg 77%
    05:00 0°C° 0.8 mm 4 mps 743 mmHg 81%
    06:00 +1°C° 0 mm 4 mps 743 mmHg 83%
    07:00 +1°C° 0 mm 4 mps 743 mmHg 86%
    08:00 +2°C° 0 mm 5 mps 743 mmHg 88%
    09:00 +3°C° 0 mm 5 mps 743 mmHg 78%
    10:00 +4°C° 0 mm 6 mps 743 mmHg 68%
    11:00 +5°C° 0 mm 6 mps 743 mmHg 58%
    12:00 +5°C° 0 mm 7 mps 743 mmHg 53%
    13:00 +6°C° 0 mm 7 mps 743 mmHg 49%
    14:00 +6°C° 0 mm 7 mps 743 mmHg 45%
    15:00 +7°C° 0 mm 6 mps 743 mmHg 46%
    16:00 +6°C° 0 mm 5 mps 743 mmHg 48%
    17:00 +6°C° 0 mm 4 mps 743 mmHg 50%
    18:00 +4°C° 0 mm 4 mps 743 mmHg 54%
    19:00 +3°C° 0 mm 4 mps 743 mmHg 57%
    20:00 +1°C° 0 mm 4 mps 743 mmHg 61%
    21:00 +1°C° 0 mm 3 mps 743 mmHg 63%
    22:00 +1°C° 0 mm 3 mps 743 mmHg 65%
    23:00 0°C° 0 mm 3 mps 743 mmHg 67%

    Tomorrow, 25 March, Monday

    Time Temperature Precipitation Wind Pressure Humidity
    00:00 +1°C° 0 mm 2 mps 743 mmHg 68%
    01:00 -1°C° 0 mm 2 mps 743 mmHg 69%
    02:00 -1°C° 0 mm 2 mps 743 mmHg 70%
    03:00 -1°C° 0 mm 2 mps 742 mmHg 70%
    04:00 -1°C° 0 mm 2 mps 742 mmHg 70%
    05:00 -1°C° 0 mm 2 mps 742 mmHg 70%
    06:00 -1°C° 0 mm 2 mps 742 mmHg 66%
    07:00 +1°C° 0 mm 2 mps 742 mmHg 63%
    08:00 +2°C° 0 mm 2 mps 741 mmHg 60%
    09:00 +3°C° 0 mm 3 mps 741 mmHg 55%
    10:00 +4°C° 0 mm 3 mps 741 mmHg 49%
    11:00 +5°C° 0 mm 3 mps 741 mmHg 44%
    12:00 +7°C° 0 mm 3 mps 740 mmHg 45%
    13:00 +7°C° 0 mm 3 mps 740 mmHg 45%
    14:00 +7°C° 0 mm 3 mps 740 mmHg 45%
    15:00 +7°C° 0.1 mm 3 mps 740 mmHg 49%
    16:00 +7°C° 0.1 mm 3 mps 739 mmHg 52%
    17:00 +6°C° 0.1 mm 2 mps 739 mmHg 55%
    18:00 +5°C° 0 mm 2 mps 739 mmHg 59%
    19:00 +4°C° 0 mm 2 mps 739 mmHg 62%
    20:00 +3°C° 0 mm 2 mps 739 mmHg 66%
    21:00 +2°C° 0 mm 2 mps 738 mmHg 66%
    22:00 +2°C° 0 mm 2 mps 738 mmHg 67%
    23:00 +1°C° 0 mm 2 mps 738 mmHg 68%

    Day after tomorrow, 26 March, Tuesday

    Time Temperature Precipitation Wind Pressure Humidity
    00:00 +1°C° 0 mm 2 mps 738 mmHg 70%
    01:00 +1°C° 0 mm 2 mps 738 mmHg 72%
    02:00 +1°C° 0 mm 2 mps 737 mmHg 75%
    03:00 +1°C° 0 mm 2 mps 737 mmHg 76%
    04:00 +1°C° 0 mm 2 mps 737 mmHg 78%
    05:00 0°C° 0 mm 3 mps 737 mmHg 80%
    06:00 -1°C° 0.2 mm 4 mps 737 mmHg 80%
    07:00 -1°C° 0.2 mm 5 mps 737 mmHg 80%
    08:00 -2°C° 0.2 mm 6 mps 737 mmHg 81%
    09:00 -2°C° 0 mm 6 mps 738 mmHg 74%
    10:00 -1°C° 0 mm 6 mps 738 mmHg 67%
    11:00 -1°C° 0 mm 6 mps 738 mmHg 61%
    12:00 +1°C° 0.1 mm 6 mps 738 mmHg 57%
    13:00 +1°C° 0.1 mm 6 mps 738 mmHg 53%
    14:00 +1°C° 0.1 mm 6 mps 738 mmHg 49%
    15:00 +1°C° 0.2 mm 5 mps 738 mmHg 55%
    16:00 0°C° 0.2 mm 5 mps 738 mmHg 60%
    17:00 0°C° 0.2 mm 4 mps 737 mmHg 66%
    18:00 -1°C° 0.4 mm 4 mps 737 mmHg 73%
    19:00 -1°C° 0.4 mm 3 mps 737 mmHg 80%
    20:00 -2°C° 0.4 mm 2 mps 737 mmHg 87%
    21:00 -2°C° 0 mm 2 mps 737 mmHg 87%
    22:00 -3°C° 0 mm 2 mps 738 mmHg 87%
    23:00 -3°C° 0 mm 2 mps 738 mmHg 87%

    27 March, Wednesday

    Time Temperature Precipitation Wind Pressure Humidity
    00:00 -3°C° 0 mm 2 mps 738 mmHg 85%
    01:00 -4°C° 0 mm 3 mps 739 mmHg 83%
    02:00 -4°C° 0 mm 3 mps 740 mmHg 81%
    03:00 -4°C° 0 mm 4 mps 740 mmHg 81%
    04:00 -5°C° 0 mm 4 mps 741 mmHg 80%
    05:00 -6°C° 0 mm 5 mps 742 mmHg 80%
    06:00 -6°C° 0 mm 5 mps 743 mmHg 78%
    07:00 -5°C° 0 mm 6 mps 744 mmHg 77%
    08:00 -5°C° 0 mm 6 mps 744 mmHg 75%
    09:00 -4°C° 0 mm 6 mps 745 mmHg 71%
    10:00 -3°C° 0 mm 6 mps 745 mmHg 66%
    11:00 -2°C° 0 mm 6 mps 746 mmHg 62%
    12:00 -2°C° 0 mm 6 mps 746 mmHg 60%
    13:00 -2°C° 0 mm 6 mps 747 mmHg 58%
    14:00 -1°C° 0 mm 6 mps 747 mmHg 56%
    15:00 -1°C° 0 mm 6 mps 748 mmHg 56%
    16:00 -2°C° 0 mm 6 mps 748 mmHg 56%
    17:00 -1°C° 0 mm 5 mps 749 mmHg 57%
    18:00 -2°C° 0 mm 5 mps 749 mmHg 62%
    19:00 -2°C° 0 mm 4 mps 750 mmHg 66%
    20:00 -2°C° 0 mm 3 mps 750 mmHg 71%
    21:00 -2°C° 0 mm 3 mps 751 mmHg 73%
    22:00 -4°C° 0 mm 3 mps 751 mmHg 75%
    23:00 -4°C° 0 mm 3 mps 751 mmHg 76%

    28 March, Thursday

    Time Temperature Precipitation Wind Pressure Humidity
    00:00 -4°C° 0 mm 3 mps 752 mmHg 77%
    01:00 -4°C° 0 mm 3 mps 752 mmHg 78%
    02:00 -5°C° 0 mm 3 mps 753 mmHg 78%
    03:00 -5°C° 0 mm 3 mps 753 mmHg 78%
    04:00 -5°C° 0 mm 3 mps 753 mmHg 78%
    05:00 -5°C° 0 mm 3 mps 753 mmHg 78%
    06:00 -4°C° 0 mm 3 mps 754 mmHg 71%
    07:00 -4°C° 0 mm 3 mps 754 mmHg 64%
    08:00 -2°C° 0 mm 3 mps 755 mmHg 57%
    09:00 -1°C° 0 mm 3 mps 755 mmHg 50%
    10:00 0°C° 0 mm 3 mps 755 mmHg 44%
    11:00 +2°C° 0 mm 3 mps 756 mmHg 37%
    12:00 +2°C° 0 mm 3 mps 755 mmHg 36%
    13:00 +3°C° 0 mm 3 mps 755 mmHg 36%
    14:00 +3°C° 0 mm 3 mps 755 mmHg 35%
    15:00 +3°C° 0 mm 3 mps 755 mmHg 40%
    16:00 +4°C° 0 mm 2 mps 755 mmHg 46%
    17:00 +3°C° 0 mm 2 mps 754 mmHg 52%
    18:00 +2°C° 0 mm 2 mps 754 mmHg 56%
    19:00 +1°C° 0 mm 2 mps 754 mmHg 60%
    20:00 -1°C° 0 mm 2 mps 754 mmHg 65%
    21:00 -1°C° 0 mm 3 mps 754 mmHg 64%
    22:00 -1°C° 0 mm 3 mps 754 mmHg 64%
    23:00 -1°C° 0 mm 3 mps 754 mmHg 64%

    29 March, Friday

    Time Temperature Precipitation Wind Pressure Humidity
    00:00 -1°C° 0 mm 3 mps 753 mmHg 68%
    01:00 -2°C° 0 mm 4 mps 753 mmHg 71%
    02:00 -2°C° 0 mm 4 mps 753 mmHg 75%
    03:00 -2°C° 0 mm 4 mps 752 mmHg 80%
    04:00 -2°C° 0 mm 4 mps 752 mmHg 86%
    05:00 -2°C° 0 mm 5 mps 751 mmHg 91%
    06:00 -1°C° 0 mm 5 mps 751 mmHg 88%
    07:00 0°C° 0 mm 5 mps 751 mmHg 86%
    08:00 +1°C° 0 mm 6 mps 751 mmHg 83%
    09:00 +2°C° 0 mm 6 mps 751 mmHg 81%
    10:00 +2°C° 0 mm 5 mps 751 mmHg 79%
    11:00 +3°C° 0 mm 5 mps 751 mmHg 78%
    12:00 +5°C° 0 mm 5 mps 751 mmHg 75%
    13:00 +6°C° 0 mm 5 mps 750 mmHg 72%
    14:00 +7°C° 0 mm 4 mps 750 mmHg 69%
    15:00 +7°C° 0 mm 4 mps 750 mmHg 70%
    16:00 +8°C° 0 mm 3 mps 750 mmHg 71%
    17:00 +8°C° 0 mm 2 mps 749 mmHg 73%
    18:00 +7°C° 0 mm 2 mps 749 mmHg 78%
    19:00 +6°C° 0 mm 2 mps 749 mmHg 82%
    20:00 +4°C° 0 mm 2 mps 749 mmHg 87%
    21:00 +4°C° 0 mm 2 mps 749 mmHg 88%
    22:00 +3°C° 0 mm 3 mps 749 mmHg 90%
    23:00 +3°C° 0 mm 3 mps 748 mmHg 91%
    Show more